This demonstration page uses our WeatherBlox Daily Observations layout. Learn more.

Left ArrowRight Arrow

Hourly Observations for July 19, 2016

Temp ( °F °C ) Dew Point ( °F °C ) Humidity (%) Winds ( mph kmh ) Pressure ( in mb ) Visibility ( mi km ) Precip ( " mm )
12:53 am 00:53 Clear 70 21.1 68 20 93 93 N N/A 30.20 1023 10 16 N/A
1:53 am 01:53 Clear 70 21.1 68 20 93 93 W 3 6 30.20 1023 10 16 N/A
2:53 am 02:53 Clear 68 20 67 19.4 96 96 N N/A 30.19 1023 8 13 N/A
3:53 am 03:53 Clear 68 20 66 18.9 93 93 N N/A 30.20 1023 7 11 N/A
4:53 am 04:53 Clear with Mist and Fog 67 19.4 65 18.3 93 93 N N/A 30.21 1023 3 5 N/A
5:53 am 05:53 Clear with Mist and Fog 66 18.9 64 17.8 93 93 N N/A 30.21 1023 6 10 N/A
6:13 am 06:13 Clear with Mist and Fog 66 18.9 64 17.8 93 93 N N/A 30.21 1023 2 2 N/A
6:15 am 06:15 Mostly Cloudy with Mist and Fog 66 18.9 64 17.8 93 93 N N/A 30.21 1023 1 2 N/A
6:22 am 06:22 Mostly Cloudy with Fog 66 18.9 64 17.8 93 93 N N/A 30.21 1023 1 1 N/A
6:27 am 06:27 Partly Cloudy with Mist and Fog 66 18.9 64 17.8 93 93 N N/A 30.21 1023 1 2 N/A
6:29 am 06:29 Partly Cloudy with Mist and Fog 66 18.9 64 17.8 93 93 N N/A 30.21 1023 2 3 N/A
6:32 am 06:32 Mostly Cloudy with Mist and Fog 66 18.9 64 17.8 93 93 N N/A 30.21 1023 3 5 N/A
6:35 am 06:35 Mostly Cloudy with Mist and Fog 66 18.9 64 17.8 93 93 N N/A 30.21 1023 2 3 N/A
6:37 am 06:37 Mostly Cloudy with Mist and Fog 66 18.9 65 18.3 96 96 N N/A 30.21 1023 1 1 N/A
6:53 am 06:53 Mostly Cloudy with Fog 67 19.4 66 18.9 97 97 N N/A 30.23 1024 1 1 N/A
7:23 am 07:23 Mostly Cloudy with Mist and Fog 69 20.6 67 19.4 93 93 N N/A 30.24 1024 2 3 N/A
7:26 am 07:26 Mostly Cloudy with Mist and Fog 69 20.6 68 20 96 96 N N/A 30.24 1024 3 5 N/A
7:33 am 07:33 Partly Cloudy 69 20.6 68 20 96 96 N N/A 30.24 1024 7 11 N/A
7:53 am 07:53 Sunny 71 21.7 69 20.6 94 94 N N/A 30.25 1024 10 16 N/A
8:53 am 08:53 Mostly Sunny 76 24.4 71 21.7 85 85 N N/A 30.26 1025 10 16 N/A
9:53 am 09:53 Mostly Sunny 79 26.1 71 21.7 77 77 N N/A 30.25 1025 10 16 N/A
10:53 am 10:53 Sunny 82 27.8 70 21.1 67 67 N N/A 30.25 1024 10 16 N/A
11:53 am 11:53 Sunny 84 28.9 66 18.9 55 55 VRB 3 6 30.25 1024 10 16 N/A
12:53 pm 12:53 Partly Cloudy 86 30 68 20 55 55 N N/A 30.23 1024 10 16 N/A
1:53 pm 13:53 Mostly Sunny 88 31.1 68 20 52 52 VRB 5 7 30.22 1023 10 16 N/A
2:53 pm 14:53 Mostly Cloudy 88 31.1 68 20 52 52 VRB 5 7 30.21 1023 10 16 N/A
3:53 pm 15:53 Mostly Cloudy 89 31.7 68 20 50 50 NNE 8 13 30.19 1022 10 16 N/A
4:53 pm 16:53 Cloudy 87 30.6 68 20 53 53 N 7 11 30.17 1022 10 16 N/A
5:53 pm 17:53 Partly Cloudy 86 30 67 19.4 53 53 N 7 11 30.16 1022 10 16 N/A
6:53 pm 18:53 Partly Cloudy 88 31.1 69 20.6 54 54 N 7 11 30.17 1022 10 16 N/A
7:53 pm 19:53 Mostly Sunny 84 28.9 67 19.4 57 57 NNE 7 11 30.16 1021 10 16 N/A
8:53 pm 20:53 Sunny 80 26.7 65 18.3 60 60 NNE 6 9 30.16 1021 10 16 N/A
9:53 pm 21:53 Clear 74 23.3 67 19.4 79 79 N N/A 30.17 1022 10 16 N/A
10:53 pm 22:53 Clear 71 21.7 66 18.9 84 84 N N/A 30.19 1022 10 16 N/A
11:53 pm 23:53 Clear 70 21.1 66 18.9 87 87 N N/A 30.20 1023 10 16 N/A

Powered by AerisWeather